Regional Weather Roundup
Issued by NWS

Home | Current Version | Previous Version | Graphics & Text | Print | Product List | Glossary On
Versions: 1 2 3 4 5 6 7 8 9 10 11 12 13 14 15 16 17 18 19 20 21 22 23 24 25 26 27 28 29 30 31 32 33 34 35 36 37 38 39 40 41 42 43 44 45 46 47 48 49 50
654
ASUS43 KLOT 010609
RWRIL

ILLINOIS REGIONAL WEATHER ROUNDUP
NATIONAL WEATHER SERVICE CHICAGO/ROMEOVILLE IL
100 AM CDT SAT OCT 01 2016

NOTE: "FAIR" INDICATES FEW OR NO CLOUDS BELOW 12,000 FEET WITH NO
SIGNIFICANT WEATHER AND/OR OBSTRUCTIONS TO VISIBILITY.

* THESE STATIONS ARE NOT UNDER NWS QUALITY CONTROL. THEY ALSO MAY NOT
  REPORT WEATHER SUCH AS PRECIPITATION OR FOG.

ILZ001-002-007-009-015-016-024-010700-
NORTHWEST ILLINOIS

CITY           SKY/WX    TMP DP  RH WIND       PRES   REMARKS
MOLINE         CLOUDY    62  58  86 N6        30.07F
6HR MIN TEMP:  62; 6HR MAX TEMP:  63; 6HR PCP:  0.01;

STERLING*      LGT RAIN  60  59  96 N8        30.07F
SAVANNA*       CLOUDY    60  58  91 N8        30.08S
$$

ILZ003-004-008-010-011-017-018-010700-
NORTH CENTRAL ILLINOIS

CITY           SKY/WX    TMP DP  RH WIND       PRES   REMARKS
ROCKFORD       DRIZZLE   60  59  96 N9        30.08S FOG
6HR MIN TEMP:  60; 6HR MAX TEMP:  62; 6HR PCP:  0.02;

FREEPORT*      CLOUDY    58  57  96 N7        30.10F
ROCHELLE*      CLOUDY    60  59  98 N7        30.07S
DE KALB*       LGT RAIN  60  59  97 NE6       30.07S
$$

ILZ005-006-012>014-019>023-010700-
NORTHEAST ILLINOIS

CITY           SKY/WX    TMP DP  RH WIND       PRES   REMARKS
CHICAGO-OHARE  CLOUDY    62  57  83 E7        30.04F
6HR MIN TEMP:  62; 6HR MAX TEMP:  63; 6HR PCP: TRACE;

CHICAGO-MIDWAY CLOUDY    63  57  81 E8        30.04F
6HR MIN TEMP:  63; 6HR MAX TEMP:  64; 6HR PCP: TRACE;

AURORA         CLOUDY    62  59  90 N6        30.05S
6HR MIN TEMP:  62; 6HR MAX TEMP:  64; 6HR PCP: TRACE;

LANSING*       CLOUDY    59  59  99 E5        30.04S
JOLIET*        CLOUDY    63  60  89 NE3       30.04S
WAUKEGAN       CLOUDY    62  58  86 E7        30.05F
6HR MIN TEMP:  61; 6HR MAX TEMP:  63; 6HR PCP:  0.05;

DUPAGE AIRPORT CLOUDY    61  58  90 N5        30.04F
6HR MIN TEMP:  61; 6HR MAX TEMP:  63; 6HR PCP: TRACE;

KANKAKEE*      CLOUDY    59  58  97 CALM      30.03F
WHEELING       CLOUDY    61  57  87 E5        30.06F
6HR MIN TEMP:  61; 6HR MAX TEMP:  63; 6HR PCP: TRACE;

MORRIS*        CLOUDY    61  58  90 CALM      30.03S
ROMEOVILLE*    CLOUDY    61  60  96 NE5       30.04F
NORTHERLY ISL    N/A     61  57  87 E10         N/A
$$

LMZ740>746-010700-
SOUTHERN LAKE MICHIGAN

STATION/POSITION SKY/WX   TEMP    WIND        PRES    VSBY  WAVE
                          AIR SEA DIR/SP/G                  HT/PER
                          (F)     (DEG/KT/KT) (MB)    (MI)  (FT/S)
SOUTHERN BUOY              63 67  100/ 16/ 19 1017.4F         4/ 6
WILMETTE HARBOR            61 59  110/  6/  8   N/A           4/ 6
HARRISON CRIB              63     100/ 16/ 17   N/A
BURNHAM HARBOR             61      80/  8/ 10   N/A
CALUMET HARBOR             62      90/  8/ 10 1016.7F
BURNS HARBOR               60      50/  4/  5 1017.6S
MICHIGAN CITY              58      60/  9/ 11   N/A
MICHIGAN CITY 6N           61 64   80/ 12/ 14   N/A           4/ 6
ST. JOSEPH                 55 51   40/  6/  6 1017.9          2/ 5
$$

ILZ025>027-034>036-040-047-049-050-058-095>099-010700-
WEST-CENTRAL ILLINOIS

CITY           SKY/WX    TMP DP  RH WIND       PRES   REMARKS
QUINCY         CLOUDY    61  59  93 N8        30.06F
GALESBURG*     CLOUDY    60  58  92 N7        30.06F
MACOMB*        CLOUDY    61  59  94 N8        30.08S
JACKSONVILLE*  CLOUDY    61  60  96 NW5       30.04F
PITTSFIELD*    CLOUDY    61  60  94 NW6       30.06F
$$

ILZ028>032-037-038-041>044-048-051>054-059>061-010700-
CENTRAL ILLINOIS

CITY           SKY/WX    TMP DP  RH WIND       PRES   REMARKS
PONTIAC        CLOUDY    61  61 100 NE6       30.03F
BLOOMINGTON    RAIN      60  59  96 N8        30.03S FOG
DECATUR        CLOUDY    63  60  90 N8        30.00F
PEORIA         CLOUDY    62  61  96 N7        30.03F
6HR MIN TEMP:  61; 6HR MAX TEMP:  62; 6HR PCP: TRACE;

LACON*         CLOUDY    61  59  93 N5        30.04R
LINCOLN*       DRIZZLE   62  62 100 N5        30.02S
SPRINGFIELD    CLOUDY    62  61  96 N7        30.02F FOG
6HR MIN TEMP:  62; 6HR MAX TEMP:  64; 6HR PCP:  0.12;

TAYLORVILLE    DRIZZLE   61  60  98 N5        30.01S
6HR MIN TEMP:  61; 6HR MAX TEMP:  62; 6HR PCP:  0.10;

$$

ILZ033-039-045-046-055>057-062-063-010700-
EAST-CENTRAL ILLINOIS

CITY           SKY/WX    TMP DP  RH WIND       PRES   REMARKS
CHAMPAIGN      CLOUDY    61  58  90 N3        30.00F
RANTOUL*       CLOUDY    62  61  96 NE6       30.00F
MATTOON        CLOUDY    59  57  93 CALM      29.98S
PARIS*         CLOUDY    59  59 100 CALM      30.00F
$$

ILZ079-100>102-010700-
SOUTHWEST ILLINOIS

CITY           SKY/WX    TMP DP  RH WIND       PRES   REMARKS
ALTON          CLOUDY    61  60  96 NW5       30.03S
BELLEVILLE     CLEAR     62  62 100 NW6       30.01S
CAHOKIA*       CLOUDY    64  59  83 NW12      30.03S
SPARTA*        CLOUDY    61  60  97 NW5       30.03F
$$

ILZ064>066-069>071-074>076-080>082-084>086-088>090-092>094-010700-
SOUTH-CENTRAL ILLINOIS

CITY           SKY/WX    TMP DP  RH WIND       PRES   REMARKS
CARBONDALE     CLOUDY    61  61 100 NW7       30.02S
6HR MIN TEMP:  60; 6HR MAX TEMP:  62; 6HR PCP:  0.02;

CAIRO*         CLOUDY    61  59  95 W6        30.02F
EFFINGHAM*     LGT RAIN  61  61 100 W3        30.00F
MARION         CLOUDY    63  63 100 CALM      30.02S FOG
MT. VERNON     CLOUDY    63  55  77 CALM      30.00F
CENTRALIA*     CLOUDY    63  62  99 NW5       30.00S FOG
SALEM*         HVY RAIN  63  61  94 CALM      29.99F
METROPOLIS*    CLOUDY    62  60  95 W6        30.02S
$$

ILZ067-068-072-073-078-083-087-091-010700-
SOUTHEAST ILLINOIS

CITY           SKY/WX    TMP DP  RH WIND       PRES   REMARKS
LAWRENCEVILLE  CLOUDY    57  56  96 S3        29.99F
FLORA*         RAIN      62  61  97 CALM      29.99S
FAIRFIELD*     CLOUDY    60  60 100 CALM      29.99S
HARRISBURG*    CLOUDY    58  58 100 CALM      30.00F
ROBINSON*      CLOUDY    56  56 100 CALM      30.00F
CARMI*         MOCLDY    57  57 100 W3        29.99F
$$

ABBREVIATIONS USED IN REMARKS
   TC - TEMPERATURE IN CELSIUS
  WCI - WIND CHILL INDEX
   HX - HEAT INDEX
  VSB - VISIBILITY
$$





USA.gov is the U.S. government's official web portal to all federal, state and local government web resources and services.